User: anonymous   Login
Location: Newark
(44.9861°N, 0.2536°E)
Time: 00:48:45
(UTC+00:00)
Language:

HuskySat-1 - Orbit

View from above orbital plane
View from above orbital plane
View from above satellite
View from above satellite

Ground track
Ground track

The orbit data is extracted from the following two-line orbital elements,

1 45117U 19071G   21127.54485737  .00002356  00000-0  76672-4 0  9990
2 45117  51.6415 234.4172 0010215 143.8129 216.3547 15.36139877 70894
Epoch (UTC): 07 May 2021 13:04:35
Eccentricity: 0.0010215
inclination: 51.6415°
perigee height: 450 km
apogee height: 464 km
right ascension of ascending node: 234.4172°
argument of perigee: 143.8129°
revolutions per day: 15.36139877
mean anomaly at epoch: 216.3547°
orbit number at epoch: 7089

The dashed part of the orbit path shows where the satellite is in the earth's shadow,  

DLR